Find Starlink 31129

NORAD ID: 58624 Int'l Des: 2023-203 Owner: SPXS Country: US Constellation: starlink operational
LEOCIRCULAR

当前视图

正在加载3D地球...

About Starlink 31129

Starlink 31129 (NORAD 58624) is a starlink constellation satellite (v2 mini) launched Dec 23, 2023 by SPXS of US. It operates in LEO, CIRCULAR orbit with a mass of 730.00 kg.

关于 Starlink 31129

正在加载描述...

即将过境

Passes for default location (London). Set your location on the main map for personalized predictions.

高度历史

Loading altitude history...

两行轨道根数

1 58624U 23203G 26177.96583637 .00023682 00000-0 86593-3 0 9990
2 58624 42.9985 169.9731 0000174 153.6597 206.4264 15.27633383140277
Epoch: Jun 26, 2026 • Age: 11 hours

当前状态

高度 484.8 km
速度 7.63 km/s
星下点 38.31°N, 145.69°W
发射日期 Dec 23, 2023
运行时间 2.5 years
类型 internet

技术详情

分类 Payload
质量 730.00 kg
干质量 700.00 kg
总质量 730.00 kg
长度 0.30 m
直径 4.10 m
跨度 29.00 m
形状 Box + pan
制造商 SPXS
平台类型 Starlink V2M
阶段状态 In Orbit
所有者/国家 SPXS/US

Most Searched